Weather Roundup
Issued by NWS

Home | Current Version | Previous Version | Text Only | Print | Product List | Glossary On
Versions: 1 2 3 4 5 6 7 8 9 10 11 12 13 14 15 16 17 18 19 20 21 22 23 24 25 26 27 28 29 30 31 32 33 34 35 36 37 38 39 40 41 42 43 44 45 46 47 48 49 50
000
NZUS93 KARX 032059
HRRWXR

CURRENT HOURLY OBSERVATIONS ACROSS
MUCH OF THE UPPER MISSISSIPPI VALLEY
NATIONAL WEATHER SERVICE LA CROSSE WI
400 PM CDT THU SEP 03 2015


...SOUTHEAST MINNESOTA...


CITY           SKY/WX    TMP DP  RH WIND       PRES   REMARKS
ROCHESTER      MOSUNNY   88  75  65 E10       29.90F HX  97
ROCHESTER/MAYO FAIR      87  72  60 E9        29.89F HX  94
WINONA         MOSUNNY   86  72  62 E3        29.88F HX  92
AUSTIN         SUNNY     88  73  62 S6        29.88S HX  96
ALBERT LEA     SUNNY     88  73  62 SE8       29.87S HX  96
DODGE CENTER   MOSUNNY   88  73  62 E6        29.89F HX  96
PRESTON        SUNNY     87  72  60 S8        29.90F HX  93
OWATONNA       SUNNY     88  73  62 E8        29.87F HX  96
FARIBAULT      MOSUNNY   88  75  66 E8        29.87F HX  97
$$

...ELSEWHERE IN MINNESOTA...


CITY           SKY/WX    TMP DP  RH WIND       PRES   REMARKS
MINNEAPOLIS    MOSUNNY   83  72  69 E14       29.87F
INTNL FALLS    SUNNY     83  64  52 SE13      29.90F
DULUTH         SUNNY     72  64  76 E12       29.97F
RED WING       SUNNY     84  72  65 SE9       29.87F VSB 1
REDWOOD FALLS  SUNNY     89  74  60 SE10      29.81F HX  98
MANKATO        SUNNY     88  75  66 SE10      29.85S HX  97
WORTHINGTON    SUNNY     86  72  62 SE12G17   29.83F HX  92
FAIRMONT       SUNNY     88  64  45 SE12      29.83F
$$

...SOUTHWEST WISCONSIN...


CITY           SKY/WX    TMP DP  RH WIND       PRES   REMARKS
LA CROSSE      MOSUNNY   88  73  61 E9        29.87F HX  95
PRAIRIE DU CHI SUNNY     89  68  50 S3        29.87F HX  92
BOSCOBEL       MOSUNNY   93  73  52 E3        29.87F HX 102
LONE ROCK      NOT AVBL
PLATTEVILLE    SUNNY     88  72  58 CALM      29.91S HX  94
FORT MC COY    SUNNY     86  67  53 NE5       29.91F
VIROQUA          N/A     87  72  61 CALM      29.92F HX  93
WIS DELLS      PTSUNNY   83  68  60 NE7       29.92F
$$

...ELSEWHERE IN WISCONSIN...


CITY           SKY/WX    TMP DP  RH WIND       PRES   REMARKS
MILWAUKEE      MOSUNNY   75  68  78 NE10      29.90F
MADISON        PTSUNNY   85  73  67 NE9       29.90S HX  91
GREEN BAY      MOSUNNY   77  68  73 CALM      29.93F
EAU CLAIRE     NOT AVBL
BLACK RVR FLS  FAIR      86  66  51 NE7       29.91F
MEDFORD        MOSUNNY   72  65  78 E3        29.98S
WAUSAU         MOSUNNY   78  65  63 S8        29.95F
WIS RAPIDS     PTSUNNY   82  65  56 NE8       29.95F
MARSHFIELD     MOSUNNY   79  64  60 E8        29.96F
RICE LAKE      MOSUNNY   81  66  61 SE6       29.95S
$$

...NORTHEAST IOWA...


CITY           SKY/WX    TMP DP  RH WIND       PRES   REMARKS
DECORAH        MOSUNNY   86  73  66 S6G13     29.89F HX  93
MASON CITY     SUNNY     88  74  63 SE9       29.88F HX  96
CHARLES CITY   SUNNY     88  77  70 S10       29.89S HX 100
OELWEIN        SUNNY     88  73  62 SW7       29.90S HX  96
$$

...ELSEWHERE IN IOWA...


CITY           SKY/WX    TMP DP  RH WIND       PRES   REMARKS
DES MOINES     MOSUNNY   91  70  49 S14       29.86F HX  96
IOWA CITY      SUNNY     89  71  55 SW9       29.89F HX  95
FORT DODGE     SUNNY     90  72  55 S10       29.85F HX  96
$$

...NORTHERN ILLINOIS...


CITY           SKY/WX    TMP DP  RH WIND       PRES   REMARKS
CHICAGO-OHARE  MOSUNNY   90  68  48 W12       29.88F HX  94
CHICAGO-MIDWAY MOSUNNY   92  67  43 SW9G20    29.88F HX  95
MOLINE         SUNNY     91  69  48 SW10      29.88F HX  96
ROCKFORD       PTSUNNY   88  72  58 W7        29.91F HX  94
PEORIA         MOSUNNY   94  66  39 W10       29.91F HX  97
$$

NOTE: "FAIR" INDICATES FEW OR NO CLOUDS BELOW 12,000 FEET WITH NO
SIGNIFICANT WEATHER AND/OR OBSTRUCTIONS TO VISIBILITY. WIND
SPEEDS ARE IN MILES-PER-HOUR.



USA.gov is the U.S. government's official web portal to all federal, state and local government web resources and services.